Regional Weather Roundup
Issued by NWS Nashville, TN

Home | Current Version | Previous Version | Text Only | Print | Product List | Glossary On
Versions: 1 2 3 4 5 6 7 8 9 10 11 12 13 14 15 16 17 18 19 20 21 22 23 24 25 26 27 28 29 30 31 32 33 34 35 36 37 38 39 40 41 42 43 44 45 46 47 48 49 50
000
ASUS44 KOHX 181215
RWROHX
MIDDLE TENNESSEE HOURLY WEATHER ROUNDUP
NATIONAL WEATHER SERVICE NASHVILLE TN
700 AM CDT THU SEP 18 2014

NOTE: "FAIR" INDICATES FEW OR NO CLOUDS BELOW 12,000 FEET WITH
NO SIGNIFICANT WEATHER AND/OR OBSTRUCTIONS TO VISIBILITY.

* THESE REPORTS ARE NOT UNDER NWS QUALITY CONTROL AND MAY NOT
  REPORT WEATHER SUCH AS PRECIPITATION AND FOG.


TNZ005>011-023>034-057-059-062>066-078-080-181300
...NORTHERN MIDDLE TENNESSEE...

CITY           SKY/WX    TMP DP  RH WIND       PRES   REMARKS
CLARKSVILLE    PTCLDY    57  55  93 CALM      30.00R FOG
CROSSVILLE     CLEAR     57  53  86 CALM      30.03R
DICKSON        CLOUDY    57  57 100 CALM      29.99R
LEBANON        PTCLDY    54  54 100 CALM      29.99R
LIVINGSTON     PTCLDY    58  55  89 CALM      30.02R
NASHVILLE      PTCLDY    59  57  93 CALM      30.00R
WEST NASHVILLE   N/A     57  57 100 CALM      29.99
PORTLAND       PTCLDY    54  52  94 CALM      30.00R
SMYRNA         PTCLDY    57  57 100 CALM      30.01R
SPARTA         CLOUDY    54  54 100 CALM      30.01R VSB 0
$$
TNZ056-058-060-061-075>077-079-093>097-181300
...SOUTHERN MIDDLE TENNESSEE...

CITY           SKY/WX    TMP DP  RH WIND       PRES   REMARKS
COLUMBIA       MOCLDY    59  59 100 CALM      29.98S
FAYETTEVILLE   PTCLDY    57  57 100 NE5       29.99S
LEWISBURG      MOCLDY    56  55  96 CALM      29.99R
MCMINNVILLE    CLEAR     55  55 100 CALM      30.00F
MURFREESBORO   CLOUDY    60  58  93 CALM      30.00R
SHELBYVILLE    CLOUDY    61  57  88 CALM      30.01R
TULLAHOMA      MOCLDY    59  55  88 CALM      30.01R
WINCHESTER     CLOUDY    57  55  94 CALM      30.01R
$$


...KEY TO REMARKS...
VSB - VISIBILITY IN MILES
WCI - WIND CHILL INDEX
HX  - HEAT INDEX



USA.gov is the U.S. government's official web portal to all federal, state and local government web resources and services.